Theta_e
338 333 330 329 327 325 321 319 302 309 305 300 300 300 299 307 307 304 305 308 307 313 314 319 319 316 313 312 311 311 313 315 311 306 310 327 335 336 340 341 343 343 344 345 347 347 347 347 347 347 345 344 344 344 344 342 341 341 341 341 341 344 347 346 346 346 345 344 342 341 341 340 339 338 339 339 340 342 344 344 344 343 341 341 340 341 340 340 341 340 340 341 340 339 339 338 338
326 328 327 329 326 320 312 315 306 304 303 300 300 303 302 306 306 304 303 307 309 311 315 320 318 318 314 316 315 311 316 319 322 320 328 332 337 337 340 341 342 341 344 345 346 346 347 347 347 346 344 344 344 344 343 342 342 341 342 342 342 342 346 346 346 346 345 343 342 342 339 338 338 339 338 338 339 339 340 341 341 341 341 342 341 341 340 339 340 340 341 341 340 339 339 339 339
324 327 327 325 323 317 314 313 301 301 299 295 299 302 306 303 304 306 308 311 312 314 319 318 318 314 312 313 310 310 310 321 325 329 328 334 330 333 339 341 342 344 344 346 345 346 347 347 345 347 345 344 344 345 345 344 342 342 342 342 343 342 345 346 346 345 345 343 342 340 339 339 338 336 336 338 338 343 344 344 341 341 344 344 343 343 343 342 341 341 341 341 341 340 340 340 340
326 329 326 323 316 317 309 308 304 302 298 299 298 303 303 304 305 309 311 313 313 317 318 316 312 318 314 309 312 313 316 318 327 329 327 330 332 337 339 340 344 343 344 345 345 346 347 345 345 347 345 344 344 344 344 344 344 343 343 343 343 342 345 346 346 345 345 343 342 341 340 338 338 338 338 338 340 344 344 344 344 342 342 343 343 341 340 340 341 341 342 341 341 340 340 341 341
326 327 325 322 317 309 309 308 304 303 298 301 298 302 304 306 307 309 310 314 315 316 316 315 315 318 318 316 314 312 319 324 328 333 330 336 339 339 340 343 342 342 343 344 344 346 347 344 346 347 346 344 344 345 344 345 343 342 342 343 342 342 344 345 345 344 344 343 342 341 340 339 337 336 337 337 339 341 344 343 343 343 343 343 342 342 342 342 341 341 342 342 341 341 340 341 340
323 323 328 321 312 315 310 303 301 300 303 304 301 302 305 308 307 310 310 312 312 315 316 314 313 312 311 314 320 317 323 320 328 332 335 335 338 340 341 344 341 342 342 344 345 346 348 343 345 347 346 345 344 344 344 344 343 343 342 342 342 342 342 345 344 344 344 343 342 341 339 339 339 337 337 339 339 340 340 342 342 342 342 342 341 342 342 342 342 341 340 341 340 341 340 340 340
323 320 316 317 314 314 304 301 301 301 301 304 303 303 305 307 309 310 309 308 310 310 312 314 313 312 311 317 317 325 331 332 328 332 338 338 340 341 341 341 341 341 343 343 345 346 349 343 347 347 347 345 345 345 345 344 345 343 342 342 341 341 342 342 344 343 342 341 341 340 339 338 336 336 337 337 338 339 340 341 341 341 341 341 341 341 341 341 341 341 341 341 340 340 339 339 339
325 319 314 307 306 307 302 303 303 304 301 304 304 305 306 308 310 309 308 307 306 307 310 311 313 311 311 318 313 325 327 334 338 340 340 338 339 340 341 341 340 340 341 344 345 346 346 343 346 347 346 345 345 345 345 345 344 344 342 341 341 342 342 342 341 341 341 340 340 338 339 337 336 336 336 338 338 338 340 341 340 340 340 341 341 341 340 341 341 340 341 341 340 339 338 339 339
321 316 319 311 304 307 302 302 303 304 302 303 303 304 310 310 310 309 307 308 309 309 310 310 313 308 309 310 320 324 327 333 336 338 338 338 338 339 339 340 337 340 342 343 345 348 348 341 345 346 346 346 345 344 344 344 344 343 342 343 342 342 341 341 340 340 339 339 338 336 336 337 337 336 336 337 338 338 337 338 340 339 339 339 339 340 339 340 340 340 340 340 339 338 338 338 338
316 315 306 306 308 300 300 302 301 302 302 303 303 303 306 309 309 310 308 306 307 308 309 313 313 308 309 308 314 322 326 333 335 336 337 338 338 339 339 339 340 341 342 343 345 346 347 346 342 344 345 346 345 344 344 344 344 343 343 343 341 341 341 340 340 339 339 338 337 336 336 337 336 336 337 336 337 337 337 338 339 339 338 338 338 338 339 339 339 339 339 339 338 338 338 337 337
309 311 315 305 302 300 299 300 301 301 302 303 304 305 307 309 310 308 309 307 309 308 311 311 308 308 308 310 320 331 332 333 333 333 337 338 339 338 338 340 341 343 341 345 345 346 347 347 343 341 343 344 345 345 345 344 344 344 343 342 341 341 341 341 339 338 338 337 337 336 335 336 335 335 337 336 335 336 336 337 338 337 339 340 339 339 339 338 339 339 338 337 337 337 337 337 336
308 306 310 301 300 300 301 300 301 302 303 303 302 305 308 308 309 307 307 305 307 309 308 310 307 310 306 308 317 326 330 332 333 335 337 339 337 338 338 339 342 341 344 345 345 344 346 347 347 343 339 341 342 343 344 344 344 343 343 342 341 341 340 339 338 338 338 338 336 335 334 335 335 338 338 336 336 338 336 336 337 339 339 339 339 338 338 338 338 338 338 337 337 337 337 336 336
311 310 304 301 301 302 302 300 300 301 301 301 303 305 308 308 307 308 307 307 307 307 307 311 312 310 304 306 320 327 328 332 335 336 338 338 337 337 338 338 341 342 343 345 344 344 345 345 345 346 342 335 337 339 340 342 343 344 343 342 341 340 339 339 339 339 337 336 335 335 334 335 336 338 339 339 338 338 337 338 338 338 337 337 337 336 337 337 337 337 336 337 336 336 336 335 335
310 312 308 300 306 303 301 301 301 299 300 303 306 306 308 307 308 309 308 305 306 305 310 313 310 309 308 310 315 318 328 334 335 337 338 338 337 336 338 338 341 341 343 344 342 343 344 344 344 345 346 345 345 340 335 338 340 342 342 341 341 341 340 340 339 339 337 340 339 337 337 337 336 337 338 339 338 337 337 338 337 336 336 336 336 336 336 336 336 336 336 336 336 336 335 334 334
309 314 308 306 303 303 303 300 300 299 300 304 305 305 307 308 308 308 308 304 305 309 310 314 315 307 304 304 309 316 329 335 335 337 338 337 336 336 337 338 340 341 342 341 342 343 342 343 344 345 345 345 345 343 344 343 335 338 339 339 339 340 340 338 338 337 336 335 334 333 333 331 331 331 333 334 335 334 333 332 335 336 335 334 335 335 336 335 335 335 335 335 335 335 334 333 333
316 309 307 303 300 300 302 302 302 300 301 305 305 307 306 306 307 306 306 306 307 311 310 307 312 308 308 317 321 325 332 335 336 337 337 335 335 336 337 337 338 339 341 341 341 343 343 343 344 344 344 343 344 344 344 344 335 333 337 337 337 337 336 335 334 333 330 328 328 329 329 332 330 333 328 332 329 330 329 330 331 335 334 334 333 334 334 335 334 334 335 335 334 333 333 332 331
315 312 303 302 299 300 302 300 301 298 303 304 306 306 304 303 306 306 306 308 305 306 307 311 309 313 314 319 329 332 334 335 335 336 335 333 333 333 335 336 336 337 338 340 341 341 343 342 342 343 344 343 344 343 344 343 341 332 333 330 331 332 332 331 329 325 323 322 325 325 327 331 334 333 336 333 327 333 322 324 330 334 334 334 332 332 333 333 334 334 334 333 333 331 328 327 327
312 303 301 299 302 301 305 303 303 305 302 303 304 306 305 302 304 305 307 306 306 307 306 311 311 314 318 320 328 334 333 332 334 333 331 331 332 331 332 333 334 334 336 337 339 341 341 342 342 342 343 343 344 344 344 344 343 338 341 341 340 334 329 327 333 336 334 336 326 331 335 333 331 333 332 333 333 332 330 322 325 330 333 333 332 331 331 332 332 333 332 331 330 328 326 331 328
306 303 302 299 302 304 306 306 305 303 303 304 305 306 306 305 305 306 303 303 304 303 305 307 307 311 316 319 324 329 329 330 332 332 330 330 331 330 331 332 332 333 334 336 338 339 341 341 342 341 342 343 344 344 344 343 342 341 342 340 339 333 335 337 337 335 337 336 334 335 332 332 333 333 333 335 332 322 327 323 325 328 330 329 329 330 330 329 329 329 330 329 328 328 332 332 331
307 305 301 303 308 304 305 304 303 305 306 304 305 306 306 307 306 307 303 303 303 301 302 305 305 307 314 318 321 325 327 329 332 331 330 330 331 331 331 331 332 332 334 335 337 339 340 341 341 342 342 343 342 342 342 343 342 341 341 342 340 338 338 338 337 336 336 335 335 334 331 332 333 333 326 327 329 331 328 321 321 322 324 325 325 327 326 325 326 325 326 326 326 327 331 330 330
307 304 303 305 307 304 304 305 303 303 306 305 305 306 304 305 306 305 303 302 301 303 306 305 305 307 312 317 320 325 327 328 330 331 330 331 332 333 333 333 333 334 334 337 337 337 339 340 341 342 342 342 342 341 341 341 342 341 341 341 339 338 338 337 336 336 336 336 335 333 334 331 333 333 332 331 331 330 330 331 330 331 330 330 323 328 326 327 326 327 326 324 329 329 329 329 329
307 303 304 304 306 304 304 304 303 303 304 306 305 303 303 306 305 304 303 301 301 304 307 308 308 309 312 316 320 325 326 327 328 329 330 330 331 332 333 334 335 335 335 335 336 337 339 340 341 341 342 342 342 341 340 341 341 340 340 341 340 338 338 337 336 335 335 335 334 334 333 330 330 329 331 331 331 330 329 329 329 330 330 329 328 327 325 325 326 326 326 327 327 327 328 328 328
301 304 303 303 303 303 302 303 301 303 304 304 303 305 306 303 303 305 304 303 304 307 308 309 311 311 317 318 321 323 325 326 327 328 329 330 330 332 332 333 333 333 333 334 336 336 337 339 340 342 341 341 342 342 341 341 340 341 340 340 339 337 337 336 335 334 334 334 334 334 332 330 329 329 330 331 331 330 329 329 328 328 329 328 328 327 326 326 326 326 326 326 327 327 327 328 327
303 302 303 302 303 302 302 301 299 301 304 304 306 306 302 303 300 305 304 307 307 306 309 309 311 320 321 319 320 323 323 324 327 329 330 330 331 331 333 333 333 334 334 334 334 335 337 338 340 340 341 341 341 341 341 340 340 340 340 340 339 335 336 335 335 335 335 333 333 333 331 332 329 328 329 330 329 330 329 330 330 329 328 328 328 328 326 325 326 326 327 327 326 327 327 327 327
301 302 302 301 302 301 301 301 300 301 302 303 304 302 302 303 303 302 303 306 307 308 312 313 311 315 317 318 318 322 323 325 326 328 330 332 333 333 335 334 334 334 332 333 334 334 335 337 339 339 340 340 341 341 340 340 340 340 340 340 338 334 336 336 335 335 334 333 333 333 332 332 331 330 328 328 328 328 329 329 328 328 329 328 327 325 325 325 325 325 325 325 325 325 326 326 326
302 302 302 301 300 301 301 301 301 301 301 302 301 302 303 302 301 302 305 306 307 308 311 310 313 313 313 315 318 320 322 324 326 327 328 332 333 333 333 334 334 332 333 333 334 334 335 336 337 338 340 340 340 340 340 339 340 339 340 340 339 336 336 336 336 334 334 333 332 333 332 332 331 330 329 328 326 326 327 328 327 327 327 327 325 324 324 324 324 324 324 325 325 325 324 325 325
305 302 302 301 300 301 301 301 301 302 302 302 302 302 301 302 301 300 306 306 305 306 307 309 311 311 314 315 316 320 322 324 326 328 329 331 332 332 332 333 332 332 333 333 334 335 336 335 337 337 338 340 340 339 340 339 339 339 340 340 340 337 337 337 336 335 334 334 333 333 332 332 332 331 330 328 327 326 326 326 325 326 325 325 325 324 325 325 325 324 324 324 324 324 323 324 323
304 303 301 300 300 301 301 301 300 302 300 302 303 301 302 302 301 301 304 304 305 304 305 309 308 309 312 315 317 320 321 324 326 328 327 327 328 330 331 331 331 332 333 333 334 336 335 335 335 336 337 339 339 338 338 339 340 340 340 340 340 340 338 337 336 335 332 334 334 333 333 333 331 331 331 330 327 326 324 324 324 324 324 324 324 324 324 324 324 325 325 325 325 324 323 323 323
302 303 299 299 301 300 300 300 300 301 300 301 303 300 299 299 298 304 304 304 304 305 306 307 307 307 311 314 317 319 321 323 326 326 327 328 329 330 330 332 332 331 333 335 335 335 335 335 335 335 336 337 338 336 336 337 339 340 340 340 340 340 338 338 336 335 335 335 334 334 333 333 332 331 331 330 327 327 324 323 323 323 323 324 323 324 324 324 323 323 324 324 324 323 322 322 323
303 302 301 298 299 299 301 301 301 300 300 301 301 293 298 300 302 304 304 304 304 304 305 306 307 308 309 314 316 318 319 322 324 325 326 327 328 328 328 331 332 332 332 334 335 334 335 337 336 336 336 336 337 337 336 336 337 339 340 340 339 340 339 338 336 336 335 334 334 334 333 333 332 331 331 330 328 327 325 324 323 322 322 323 323 323 322 323 322 322 321 321 319 320 320 320 319
298 300 301 297 296 296 300 301 300 300 300 300 301 295 298 302 304 304 304 304 304 304 304 306 307 308 309 311 312 315 318 321 322 324 325 327 328 329 329 330 331 333 332 333 334 335 335 335 336 334 335 336 336 337 337 335 336 338 339 340 339 340 339 338 337 336 335 334 334 334 333 332 332 332 331 330 328 327 325 323 322 322 322 322 321 321 322 322 321 321 321 320 320 319 320 320 319
300 296 293 298 296 298 298 300 299 298 298 301 300 295 298 302 302 302 303 303 303 304 305 305 306 307 309 309 310 311 314 320 321 322 324 326 328 328 329 328 330 331 332 333 334 335 334 335 335 334 335 335 335 336 336 336 334 336 338 334 340 340 339 339 338 337 337 336 334 334 334 333 332 332 331 330 328 327 325 324 323 323 322 321 321 321 321 320 320 321 321 320 318 318 318 319 319
298 296 296 295 297 297 297 299 301 299 299 299 299 296 298 298 300 301 302 303 303 303 304 305 305 306 306 307 308 308 310 313 319 321 323 325 326 328 329 329 329 331 332 332 332 333 333 334 334 334 334 334 335 334 336 336 334 334 334 335 338 339 339 338 338 338 337 336 336 334 334 334 333 332 331 330 329 328 326 325 324 323 322 320 319 319 319 320 319 319 319 320 320 318 318 318 317
294 297 295 298 295 296 295 297 300 302 300 296 298 295 297 301 302 301 302 303 303 302 303 304 305 305 306 307 306 307 307 309 312 317 320 323 326 327 328 326 329 331 332 332 332 332 332 333 334 334 335 335 335 335 334 334 333 334 334 335 335 337 338 338 339 339 338 338 337 336 335 334 332 331 331 330 329 329 328 326 325 323 321 319 319 318 318 319 319 319 318 319 318 318 317 316 316
293 293 294 296 297 296 295 295 298 299 299 299 298 296 297 301 303 302 302 303 302 302 303 304 304 305 306 306 307 307 307 308 309 311 315 319 322 325 326 327 328 330 331 331 331 332 332 332 333 333 333 334 334 335 335 335 335 334 335 335 335 337 338 340 339 338 337 336 335 334 332 331 329 330 330 329 328 328 327 326 325 322 319 318 318 317 317 317 317 318 317 317 317 318 317 316 315
296 295 294 295 293 294 294 296 296 298 297 296 298 296 298 300 302 303 303 303 302 303 304 304 305 305 306 306 307 307 308 308 310 312 314 315 319 322 324 325 326 328 329 330 329 331 330 330 331 332 332 333 334 333 333 333 334 333 332 332 332 332 336 335 337 337 336 335 334 333 332 332 331 330 330 330 329 328 325 323 321 319 317 317 316 316 316 315 315 316 315 315 314 313 311 311 309
298 298 298 295 296 295 296 297 298 297 297 296 297 298 299 300 301 303 304 304 303 303 303 303 304 305 305 306 306 307 308 309 316 317 317 315 316 318 322 323 324 326 326 327 328 330 330 330 330 330 331 332 332 332 331 330 329 329 329 330 330 330 331 334 335 335 335 336 335 334 333 333 333 331 330 331 331 324 323 322 321 319 317 316 316 316 317 316 316 315 315 314 312 310 309 307 306
296 296 296 295 296 294 297 297 298 299 296 297 299 298 299 300 302 303 304 303 302 303 303 303 304 305 306 307 307 308 309 314 317 314 312 314 312 314 315 318 320 322 323 325 326 327 329 330 329 330 330 330 330 331 331 330 331 330 329 329 329 329 328 329 330 331 332 334 335 335 335 334 334 334 331 331 328 326 322 321 321 318 315 314 314 315 315 313 314 313 313 311 310 309 308 306 305
297 295 295 294 294 296 295 297 298 298 296 296 299 296 298 300 301 303 303 302 303 304 305 305 305 305 305 306 308 309 311 313 314 312 312 311 313 312 312 312 315 319 322 323 325 326 328 328 329 329 329 329 329 330 330 329 331 331 331 330 329 330 332 333 333 333 333 332 334 334 334 333 331 331 330 328 326 324 323 321 320 319 317 314 312 312 312 311 311 311 311 310 307 307 307 305 305
296 295 294 292 296 293 291 295 297 296 296 297 297 296 298 300 302 303 304 304 304 305 305 306 306 305 306 307 309 310 311 313 313 312 311 310 312 312 311 311 311 313 315 320 322 323 325 326 327 328 328 329 329 329 329 330 330 331 331 331 331 329 328 332 334 334 334 333 332 334 333 333 331 329 329 328 326 324 323 322 321 320 317 315 314 312 310 309 310 310 310 309 309 305 304 304 303
298 298 296 294 295 295 296 294 296 295 296 295 296 295 295 298 298 299 303 305 305 306 307 307 308 310 311 314 314 315 310 311 313 312 311 310 310 310 310 311 311 311 313 317 320 322 323 325 327 327 328 328 328 328 328 329 329 328 328 330 331 329 328 328 328 327 329 330 330 331 331 332 332 330 329 327 325 325 325 325 324 322 319 316 312 311 310 310 309 310 309 309 309 307 305 305 302
295 299 298 298 298 296 295 296 294 294 294 297 296 289 290 297 298 298 301 301 301 304 303 303 304 306 307 306 308 310 312 312 311 311 311 311 310 309 309 309 310 312 312 316 320 321 323 324 326 327 327 327 327 328 328 328 327 325 325 324 322 322 321 322 322 323 325 326 326 329 331 331 331 331 331 330 328 325 327 327 326 324 320 315 312 312 312 311 309 309 309 309 308 309 308 306 302
293 295 300 298 297 297 297 296 296 290 289 295 296 289 287 298 297 299 300 299 300 302 302 302 303 304 306 307 307 307 308 309 310 309 310 311 310 309 309 308 310 310 311 314 318 320 322 323 325 326 326 326 327 326 327 326 325 325 323 323 322 321 320 322 324 325 325 326 327 327 328 329 330 329 329 329 328 326 326 325 324 321 319 316 313 311 310 310 310 310 310 309 309 308 308 305 306
292 296 300 298 299 298 297 297 296 295 295 295 294 295 289 290 296 301 300 298 298 300 302 303 303 303 305 306 306 306 307 307 309 309 308 308 308 308 308 308 309 310 312 313 316 316 318 320 323 324 325 324 325 325 325 324 324 323 322 322 322 322 322 322 324 324 326 326 326 326 327 328 328 328 328 329 328 327 325 325 323 321 319 316 314 312 311 312 312 311 310 309 309 308 307 305 306
295 294 300 298 298 298 298 297 295 297 294 290 293 299 288 288 295 299 299 296 298 299 300 303 304 305 305 305 305 305 306 307 307 309 308 308 308 308 308 308 309 310 313 314 315 316 318 320 322 323 323 323 324 324 323 323 323 323 322 322 321 322 323 323 324 325 324 325 324 326 326 326 326 326 326 326 326 326 324 323 324 322 320 318 315 314 312 312 312 311 309 308 307 307 307 307 307
294 298 300 299 300 300 299 296 295 294 290 286 292 295 287 288 295 296 297 296 297 298 300 302 305 304 305 305 307 307 308 309 308 306 306 309 310 309 309 311 311 313 314 314 315 317 318 320 320 321 322 323 323 322 322 321 321 322 322 321 321 321 322 322 323 323 323 324 323 322 323 322 322 322 323 323 324 325 324 323 322 322 322 320 317 315 313 312 311 311 310 308 307 307 307 307 306
298 300 298 297 297 297 296 298 294 290 285 287 294 293 291 285 294 295 296 297 298 299 301 302 303 304 304 305 307 309 308 308 310 308 305 309 310 310 309 310 312 314 315 316 317 318 319 319 319 320 321 321 321 320 320 320 321 321 321 321 321 321 321 321 320 320 320 320 320 320 321 321 321 321 322 322 322 322 322 322 322 321 321 319 316 315 313 312 311 310 310 309 308 307 306 306 305
301 298 295 295 293 295 292 291 292 285 284 288 289 291 293 284 290 297 300 298 298 300 300 301 302 303 305 306 306 306 306 307 308 307 306 309 307 308 310 311 311 311 313 315 316 318 318 319 319 319 319 320 319 319 319 320 320 321 322 322 321 322 321 320 319 319 320 319 319 319 321 321 320 320 320 320 320 320 320 320 321 320 319 319 317 316 315 314 312 311 310 309 308 308 307 306 305
298 296 294 288 286 287 283 287 283 284 284 286 288 290 288 288 292 297 298 299 298 299 300 301 302 302 304 305 305 305 306 306 307 309 310 309 308 308 310 311 311 311 312 315 316 316 317 318 318 318 318 318 318 318 319 320 320 320 321 321 321 321 321 321 320 320 321 320 319 319 319 318 319 318 318 317 318 319 318 318 318 318 318 318 317 316 315 314 313 311 309 308 307 307 306 305 304
295 293 291 287 284 282 280 284 286 286 286 287 287 292 285 292 294 299 298 300 300 301 301 303 302 301 302 304 304 304 306 307 309 310 310 310 311 311 312 312 312 312 313 315 315 316 317 318 318 318 317 318 318 318 319 318 319 319 320 320 321 321 320 320 320 320 321 320 321 319 319 319 318 318 318 318 318 318 318 317 317 317 317 318 317 317 316 315 313 312 311 309 308 307 307 305 305
294 304 294 290 288 284 280 283 281 282 285 284 288 285 285 287 291 298 300 301 298 299 299 301 301 302 303 303 303 304 304 306 309 309 310 311 312 312 312 313 314 314 314 314 315 316 317 317 318 317 316 317 318 318 319 318 319 319 320 320 320 320 320 319 319 320 319 319 319 318 318 318 317 317 317 318 318 318 317 317 316 316 316 316 316 316 315 314 314 312 311 310 309 309 307 306 305
296 296 296 290 289 294 285 286 286 285 283 283 283 285 292 292 300 300 302 301 300 298 299 298 299 300 301 301 302 303 305 307 309 310 310 311 312 312 313 314 314 314 314 315 315 316 317 318 318 317 316 316 317 318 319 319 319 319 319 319 319 319 318 319 318 318 317 318 317 317 316 316 316 316 316 316 316 316 315 315 315 315 315 315 315 315 315 314 313 312 311 310 309 310 308 307 306
292 293 288 291 295 292 284 283 284 282 284 284 289 288 292 297 297 299 300 299 299 299 298 297 298 300 302 302 304 305 307 308 309 310 309 310 310 311 312 313 313 314 314 315 315 316 317 317 318 317 316 316 316 317 317 318 318 317 317 317 318 317 316 316 315 315 315 315 315 315 315 315 315 314 315 314 314 313 313 313 313 313 313 314 313 313 313 313 313 312 311 309 308 309 308 307 307
293 286 292 295 298 298 290 283 284 283 281 284 288 286 287 289 286 298 299 297 298 299 298 298 299 301 300 302 305 306 308 309 309 310 310 310 310 310 311 312 312 313 314 314 314 316 317 317 317 316 315 314 315 316 316 316 316 315 315 315 316 315 315 314 314 315 315 314 313 313 313 313 313 313 313 313 312 311 312 310 311 311 312 312 312 312 312 312 312 310 310 310 309 308 307 306 305
295 293 302 292 285 285 287 286 279 280 280 282 285 287 287 290 291 294 293 295 297 298 300 298 298 299 300 302 305 307 309 308 308 308 308 308 309 309 309 309 310 311 313 313 313 312 314 315 316 315 314 314 314 315 314 314 315 315 315 314 314 313 313 313 313 313 313 312 312 312 312 312 312 312 311 310 310 310 309 310 310 310 310 310 311 311 311 310 310 309 309 308 309 308 306 305 305
296 296 293 296 292 289 286 286 287 286 282 282 284 285 284 293 293 295 296 297 298 298 300 299 299 300 301 302 306 307 307 307 308 308 308 308 309 309 309 308 308 308 308 309 310 311 311 312 312 314 313 313 312 312 311 311 312 312 312 312 312 312 312 311 311 311 310 310 311 311 311 310 310 310 310 310 309 308 308 308 309 309 308 308 308 309 309 309 308 308 308 308 307 306 305 304 303
289 291 289 292 294 294 292 294 287 285 283 283 283 282 287 295 298 296 297 298 299 299 300 303 302 302 303 305 307 307 307 307 308 308 308 308 308 308 307 308 307 307 307 308 309 309 310 310 311 310 310 310 310 310 311 311 310 311 310 310 310 309 309 310 309 310 309 309 309 309 309 309 309 308 308 307 307 307 307 307 307 307 307 307 307 307 307 307 307 306 306 306 306 305 304 302 302
292 291 289 290 288 286 284 283 290 285 285 283 283 282 289 298 298 298 298 299 300 300 300 301 302 302 304 307 307 307 307 308 308 308 308 308 307 306 306 305 305 305 305 305 307 308 308 308 309 310 310 310 310 309 310 310 309 310 309 309 309 309 309 308 308 307 308 308 307 307 307 306 306 307 306 306 305 306 305 305 305 305 306 306 306 306 306 306 305 305 304 305 305 304 303 302 300
Wind_Speed
8 5 3 4 5 6 6 5 5 5 5 3 3 5 6 4 6 8 8 8 7 5 4 6 7 6 4 5 7 6 8 9 8 6 4 4 5 10 7 9 10 9 10 10 10 11 11 9 10 11 11 10 10 11 10 9 9 10 9 10 10 12 13 12 12 11 11 14 14 13 12 13 13 12 13 13 14 15 15 15 14 14 14 15 15 15 15 15 16 16 16 16 16 16 16 16 16
5 4 4 4 5 3 4 0 5 3 4 2 3 2 9 7 6 8 10 6 6 7 5 7 6 4 3 1 3 3 9 9 11 8 7 8 9 8 8 10 10 10 9 10 10 10 11 11 10 11 11 11 10 10 10 9 9 9 9 10 10 10 13 12 12 11 10 13 13 12 13 12 12 13 13 13 13 12 12 14 14 13 14 15 15 16 15 16 16 16 16 16 16 16 16 16 16
6 5 4 4 5 6 4 4 6 4 5 5 6 4 8 8 7 9 8 9 11 9 7 8 6 3 3 3 5 4 6 4 9 11 8 10 12 8 10 11 10 10 10 9 9 10 9 11 10 11 11 11 10 10 10 9 9 9 9 10 10 10 13 12 12 12 11 13 13 13 12 12 13 12 12 13 12 14 14 14 12 13 15 15 15 15 15 15 15 16 16 16 16 15 16 16 15
6 5 5 3 4 3 6 4 7 5 6 1 7 7 8 8 8 11 10 10 10 9 8 8 7 2 3 3 5 1 7 6 7 9 8 10 6 12 11 11 10 9 8 7 9 9 9 11 10 11 11 10 10 10 9 8 8 8 9 10 10 9 13 12 12 12 10 13 13 13 13 11 12 14 12 12 13 14 13 13 13 13 14 15 15 16 15 15 15 15 16 15 15 15 15 15 15
6 4 3 4 6 6 5 5 6 4 6 3 3 10 8 7 11 10 9 8 9 7 7 7 4 3 3 3 3 2 6 8 6 5 8 7 12 12 12 11 10 9 8 8 9 9 11 12 10 10 11 11 11 10 9 9 8 8 8 9 9 9 12 12 12 12 11 13 13 12 12 12 13 12 12 12 12 13 14 13 12 13 13 14 15 15 15 14 15 15 15 15 15 15 15 15 15
5 4 3 4 3 4 3 3 6 7 4 7 5 8 9 7 10 11 10 8 5 4 2 9 2 6 4 1 3 3 2 1 7 7 10 10 13 14 13 11 10 8 8 8 8 9 11 12 10 10 11 11 11 10 9 8 8 8 8 8 9 9 11 14 12 12 11 12 13 12 11 11 12 12 12 12 12 13 12 15 14 14 13 14 14 14 15 14 14 15 15 15 14 15 14 15 15
3 4 3 4 4 2 6 6 6 7 6 4 6 9 9 9 11 13 11 9 3 2 2 5 2 5 5 4 4 5 5 6 6 7 6 12 13 13 13 10 10 9 9 8 8 10 13 11 10 10 10 10 11 10 9 9 8 8 8 8 9 9 10 11 13 12 12 12 11 11 11 11 11 12 11 11 12 12 13 13 14 13 13 12 13 15 14 14 13 14 14 14 15 14 14 14 14
3 4 4 6 5 4 7 7 5 2 4 6 3 4 9 9 12 11 12 10 8 6 7 0 5 5 7 2 2 5 5 5 8 7 13 12 13 14 12 10 10 9 8 8 8 9 12 11 9 10 10 10 10 10 9 9 8 8 8 8 8 9 9 10 11 11 11 11 10 9 10 11 10 10 11 11 10 11 13 12 12 12 13 14 13 14 13 13 13 13 14 14 13 13 14 14 14
4 6 1 4 7 4 6 7 2 5 5 3 4 5 6 9 10 10 11 4 11 4 11 7 4 6 7 6 5 6 5 7 7 10 12 13 13 14 9 11 11 9 9 8 9 11 11 10 8 10 9 10 10 10 9 9 8 8 7 8 8 9 9 9 10 10 10 10 10 8 9 9 10 9 11 11 11 10 9 11 13 12 12 12 12 12 12 13 12 13 13 13 13 13 13 13 13
4 4 5 6 5 7 7 6 6 3 4 4 3 5 6 8 9 8 10 7 8 7 8 6 4 3 4 6 7 6 6 8 9 9 12 12 13 13 12 10 11 10 9 8 9 10 9 9 8 9 9 8 9 10 10 9 9 8 7 7 8 9 9 9 10 10 10 11 10 9 8 9 9 10 11 10 10 10 10 10 11 11 10 10 11 12 11 11 12 12 12 12 12 12 12 11 11
5 5 4 6 7 7 7 5 6 5 5 5 3 4 6 6 7 8 8 6 8 8 8 5 4 5 4 4 5 5 9 9 12 13 13 12 12 11 12 9 9 10 9 8 8 9 10 10 9 8 8 8 8 9 9 8 9 9 8 8 8 8 9 9 10 10 10 10 10 9 8 9 7 9 10 10 8 8 9 10 10 11 12 13 12 11 11 11 11 11 11 11 11 11 11 11 11
5 6 4 7 7 7 6 6 5 4 5 5 5 7 4 8 8 8 8 8 7 7 9 10 2 7 4 4 5 7 9 9 11 12 13 11 10 11 11 9 9 9 9 8 8 9 10 10 10 8 8 7 8 8 8 7 8 9 9 8 8 8 9 9 10 10 10 10 10 10 9 9 8 11 8 10 9 8 9 9 11 12 11 12 12 12 11 11 11 11 11 11 11 11 11 10 10
5 6 7 6 7 8 2 1 4 4 5 6 7 7 6 9 9 8 8 6 9 7 8 10 3 4 5 3 6 9 11 10 12 13 13 11 10 10 10 10 10 10 9 8 8 8 10 10 9 10 9 8 8 8 7 7 7 8 8 9 8 9 9 10 10 10 10 10 10 9 8 7 9 11 9 11 9 7 9 10 11 11 10 10 10 10 10 10 10 10 10 10 10 11 10 10 9
4 3 5 9 3 5 4 3 5 5 5 7 6 9 9 8 9 8 7 7 9 8 5 8 3 2 1 6 7 7 9 12 14 13 11 11 10 9 10 9 9 9 9 9 8 8 8 9 9 10 10 9 9 8 7 8 7 8 8 8 7 7 9 9 9 8 9 9 9 9 8 9 11 9 8 8 9 9 9 9 10 10 10 10 10 10 10 10 10 10 9 10 10 10 9 9 8
4 2 3 5 4 5 2 4 7 7 4 10 7 11 10 3 2 2 8 8 6 7 4 4 2 3 4 8 7 8 12 14 14 12 11 11 11 10 10 8 9 8 9 9 8 8 9 8 9 8 10 9 10 8 8 9 9 8 8 8 7 7 8 8 9 9 10 10 9 9 9 10 10 9 9 8 8 9 9 9 9 8 9 9 9 9 10 9 9 9 9 9 10 10 9 8 8
3 3 4 6 7 7 5 4 3 6 5 8 9 9 10 5 2 6 3 7 5 4 5 5 2 1 6 7 10 12 16 16 14 13 12 11 10 10 10 9 10 9 8 9 9 8 8 8 8 8 8 9 9 8 8 10 9 10 9 8 7 8 8 9 10 10 10 10 10 9 9 9 9 8 9 7 8 9 8 7 7 8 8 9 9 8 8 9 8 8 9 9 10 9 9 8 8
1 3 5 6 9 9 7 8 7 7 9 8 9 11 11 7 5 1 3 2 3 6 4 2 4 1 6 7 7 12 15 14 13 15 13 11 9 9 8 8 8 8 7 9 9 8 8 8 9 8 9 9 8 7 7 9 9 10 8 8 9 9 9 9 10 9 9 8 8 8 7 7 7 7 7 7 6 7 7 8 8 8 9 9 7 8 7 7 8 8 8 8 9 9 8 8 8
4 5 6 7 5 9 8 8 7 5 8 10 11 12 11 9 7 4 2 4 2 5 6 4 2 4 8 7 4 9 13 15 14 16 13 12 10 10 9 10 9 9 9 9 10 9 9 9 9 9 8 9 8 6 6 7 8 9 9 8 7 7 7 9 8 7 7 6 7 7 6 6 6 5 6 7 6 7 7 9 9 9 9 8 8 7 7 7 7 7 7 7 7 8 7 5 4
7 6 7 8 8 1 3 2 4 2 7 12 11 11 10 7 11 7 8 8 7 6 7 6 6 7 9 9 8 9 11 13 15 15 16 15 13 13 12 10 10 10 10 9 9 11 9 8 9 9 8 9 9 8 6 7 9 7 9 8 7 7 7 7 6 7 6 6 6 5 4 5 5 5 5 5 7 11 9 10 10 10 11 11 11 11 9 9 7 5 5 6 4 5 5 4 4
9 6 8 8 6 5 4 4 4 5 8 11 11 10 5 5 9 8 8 8 9 9 8 9 10 11 10 10 11 10 12 14 15 15 16 15 13 13 12 12 11 11 10 9 9 9 10 9 10 9 9 9 8 7 6 7 8 7 7 7 7 6 7 6 5 5 5 5 5 4 3 4 4 5 8 11 10 7 7 10 12 12 11 11 11 7 8 8 8 5 1 3 5 5 4 3 3
3 6 6 5 8 6 5 5 5 3 0 11 11 9 7 6 6 9 7 7 9 9 9 11 12 11 12 12 12 12 12 14 15 15 14 15 13 10 10 11 10 10 9 8 8 9 11 10 9 10 9 8 9 7 7 7 7 7 7 7 6 6 6 6 5 5 4 5 4 4 3 4 4 5 6 5 6 6 6 6 7 6 5 5 7 3 3 3 4 3 3 5 6 3 2 3 4
3 9 4 7 2 4 6 5 5 3 3 10 10 12 8 7 4 10 9 8 6 9 10 11 11 11 13 14 13 12 13 14 15 15 15 15 15 13 10 9 10 10 10 9 10 10 11 11 10 9 10 10 9 8 8 7 7 6 6 7 7 6 6 6 5 5 4 5 5 4 4 4 4 5 6 6 5 5 7 6 6 5 5 5 6 3 4 4 4 5 5 5 3 3 3 3 4
7 5 1 4 6 2 3 4 2 0 6 10 10 9 8 10 6 10 10 12 5 6 8 7 7 1 14 14 14 13 13 14 16 17 16 16 15 14 12 10 10 10 9 10 10 10 11 11 11 10 10 9 10 9 8 6 7 7 6 7 7 6 6 6 5 5 5 6 5 4 4 4 4 5 5 6 5 5 5 5 4 4 6 5 5 4 4 4 4 4 4 3 2 2 2 2 3
6 3 3 2 6 3 2 3 2 2 5 8 6 7 8 10 8 7 10 11 7 7 8 5 4 7 12 13 13 15 16 16 17 16 16 16 15 15 12 12 10 9 9 10 10 10 10 12 12 12 10 10 10 10 9 7 7 7 7 6 7 6 6 6 6 5 4 5 6 5 5 5 4 4 5 5 5 5 5 5 4 4 5 4 4 4 4 5 5 4 4 4 3 3 4 4 4
9 6 3 3 2 3 2 3 3 2 2 4 6 8 7 10 2 5 11 11 5 5 4 4 3 6 8 11 13 13 13 13 13 13 12 11 12 12 11 9 9 9 10 11 10 11 12 11 13 12 11 12 10 9 9 8 8 7 8 7 8 6 6 6 6 6 5 5 6 5 6 5 5 4 5 5 5 5 5 5 4 4 4 4 4 4 5 5 5 4 4 4 4 4 4 4 4
10 1 5 4 3 3 2 3 3 4 3 4 7 9 4 3 3 6 8 10 6 8 5 5 5 6 9 10 12 13 13 14 13 13 14 11 10 13 13 11 9 11 11 11 11 10 10 12 13 13 13 11 10 10 8 9 8 8 8 8 8 6 7 7 7 6 6 6 6 6 6 6 5 5 5 5 5 5 5 5 4 4 4 4 4 4 5 5 5 4 5 5 5 4 4 5 4
3 8 4 4 3 2 0 3 4 3 4 6 8 8 5 2 4 6 10 6 7 6 6 5 4 6 8 8 9 11 12 13 14 12 11 11 11 12 13 12 12 12 11 11 11 10 9 11 12 13 13 10 10 10 9 9 9 9 8 8 8 7 8 7 7 7 7 7 7 7 7 7 6 6 6 5 5 5 5 5 5 4 4 4 4 4 4 5 4 4 5 5 5 5 5 4 5
5 10 8 5 3 2 2 2 4 4 3 5 4 5 3 5 4 5 9 5 6 9 9 8 7 6 7 8 8 8 9 10 10 11 14 14 11 11 13 12 13 12 12 12 10 10 10 12 12 13 13 12 11 11 9 10 9 8 8 8 8 7 8 7 6 7 7 7 8 8 8 8 7 6 7 6 5 5 5 5 5 5 5 4 4 5 5 5 4 4 5 5 5 5 5 4 5
8 10 7 5 4 4 3 4 4 4 2 5 2 5 6 8 9 9 7 5 7 8 9 9 9 8 7 8 8 8 8 8 10 10 12 12 11 10 13 12 12 12 9 11 11 11 12 12 11 12 13 12 13 12 11 10 10 9 9 8 8 9 9 9 8 8 8 8 8 8 8 9 8 7 7 7 6 5 5 6 6 5 5 5 5 5 5 5 4 4 4 3 4 4 5 5 5
6 6 5 6 6 7 6 2 3 4 3 3 3 6 8 14 15 9 8 7 7 8 9 9 7 8 8 8 8 8 8 9 10 11 10 10 10 11 12 12 12 11 9 9 11 12 10 8 8 9 11 13 13 12 11 9 9 9 9 9 9 10 10 10 10 9 9 8 8 8 8 9 8 8 7 8 7 6 6 6 6 6 6 6 6 5 6 5 5 6 6 5 5 5 6 6 5
8 6 4 7 7 7 8 4 5 5 2 3 3 5 6 9 14 10 7 6 9 9 9 9 9 8 8 8 8 8 9 10 11 12 11 11 10 9 11 11 12 12 9 10 13 13 12 10 8 8 10 12 12 12 11 10 9 8 9 8 9 9 9 9 9 8 7 7 8 9 10 10 9 9 8 7 7 7 6 7 7 6 6 6 6 6 6 6 6 6 6 6 6 6 6 6 6
7 7 9 8 9 5 6 4 5 5 3 5 4 7 9 7 10 7 6 5 5 8 9 9 8 8 8 7 8 8 9 10 10 11 12 12 11 9 11 12 12 12 12 11 11 11 12 12 11 10 11 12 12 12 12 11 11 10 9 8 8 9 8 8 6 6 7 8 8 8 9 10 10 10 9 8 7 7 7 7 7 6 7 6 5 5 5 5 5 5 6 6 6 6 7 7 6
8 10 7 10 8 5 6 6 4 2 5 6 9 4 5 5 5 5 4 7 7 8 8 9 8 8 8 7 7 8 8 9 9 11 11 11 10 10 9 11 12 13 12 11 11 12 12 13 11 11 12 12 12 13 13 11 10 9 9 9 10 8 9 9 10 8 8 9 7 7 10 10 10 9 9 9 7 7 7 7 6 7 6 6 6 5 6 6 6 6 6 6 7 6 7 7 6
8 8 8 8 12 7 6 5 4 3 6 8 9 5 9 5 6 6 5 6 9 9 9 8 8 7 8 7 7 8 9 9 10 11 12 12 10 12 9 10 11 11 11 11 11 11 12 12 11 11 10 11 10 10 11 11 10 10 10 8 8 8 9 8 8 8 7 7 7 9 7 7 9 9 8 7 7 7 7 7 6 7 7 6 6 6 6 6 6 6 7 6 7 6 6 6 7
9 9 9 5 6 10 6 6 7 7 7 7 10 11 13 12 6 7 8 7 7 9 9 8 8 9 9 8 8 9 9 10 10 9 11 13 13 11 10 10 10 10 9 12 11 10 10 10 10 11 10 10 10 9 9 9 9 9 8 9 8 8 7 5 6 6 5 4 4 3 4 5 5 5 6 7 7 7 7 7 6 6 6 6 6 6 6 7 7 7 7 6 6 6 4 5 5
10 12 11 7 9 10 8 3 2 6 9 8 11 10 13 13 13 6 9 9 8 7 6 5 6 7 8 9 9 9 9 10 8 8 9 10 10 10 10 10 10 10 10 10 12 11 11 10 10 10 11 10 10 10 9 10 9 9 10 9 9 9 8 7 7 6 5 5 6 7 7 6 6 7 8 8 7 7 6 5 4 4 5 5 7 7 8 8 9 8 7 6 5 1 1 1 3
0 8 6 5 6 3 5 6 3 1 3 11 12 13 13 13 12 12 9 10 8 8 8 8 8 8 9 9 10 10 11 11 5 5 6 7 8 9 9 9 9 10 11 11 12 12 12 12 11 12 11 11 9 9 9 9 10 9 9 9 9 8 8 8 9 8 8 8 8 7 7 7 9 8 8 10 10 7 3 3 3 4 4 5 7 8 7 7 6 6 3 2 4 3 3 2 3
6 6 6 6 4 4 3 4 4 2 4 6 11 11 13 13 11 8 7 9 11 11 11 12 12 11 10 11 12 12 11 5 6 4 5 6 6 7 7 7 9 11 11 12 13 13 13 13 12 11 10 11 11 10 9 9 9 8 8 8 10 10 9 8 8 8 8 6 8 9 9 10 9 8 7 6 5 6 6 6 6 5 5 6 6 5 5 4 4 3 3 3 1 3 3 4 3
3 6 5 5 5 4 3 4 2 4 3 6 3 8 12 13 13 13 14 14 12 12 13 13 12 13 12 11 12 12 9 9 8 9 8 8 9 9 8 8 8 11 11 12 12 12 12 12 11 11 10 10 10 10 9 9 8 8 8 6 8 7 7 8 8 7 7 8 8 8 5 4 5 5 7 6 6 6 7 7 7 6 7 6 5 4 4 5 5 5 6 5 3 3 3 1 5
6 6 6 7 4 6 4 4 5 2 3 2 5 7 9 12 12 13 13 13 13 13 14 13 11 13 13 12 11 10 10 9 11 10 10 10 10 9 8 8 8 9 9 10 11 13 11 11 11 11 11 10 10 10 9 8 8 7 6 6 5 5 3 6 6 5 7 8 8 7 7 6 6 6 8 8 6 6 7 7 6 6 6 5 5 6 5 6 6 7 7 7 6 7 5 6 6
8 8 6 6 6 5 3 4 3 3 2 1 7 8 11 11 12 11 13 14 12 10 8 7 7 6 6 4 3 3 9 9 8 8 9 9 10 10 10 9 8 9 9 10 11 11 9 12 12 12 10 11 9 10 11 8 8 8 7 4 2 4 2 1 3 3 4 7 6 8 8 8 7 6 7 8 7 8 8 8 8 7 6 7 6 7 7 8 8 6 6 5 8 10 9 6 4
8 7 6 3 5 6 7 8 7 4 4 6 4 4 8 8 13 14 7 5 8 9 10 12 12 11 10 11 12 10 8 6 6 7 7 8 8 8 8 9 9 8 9 9 9 10 9 10 11 11 9 9 9 10 11 9 8 8 9 7 9 8 8 8 9 8 7 8 9 8 7 6 6 5 5 6 8 8 8 8 8 7 6 5 6 7 8 6 8 7 8 8 9 8 8 7 5
7 5 7 1 1 5 7 7 4 4 5 3 2 8 5 4 6 8 6 4 8 7 9 11 11 11 10 10 9 8 8 7 7 8 7 6 6 6 7 8 9 9 9 8 8 9 9 9 10 11 9 9 9 10 11 9 8 8 10 10 10 10 8 7 6 6 6 7 6 8 8 8 7 5 5 6 5 5 6 6 6 6 6 6 7 6 6 7 7 9 7 8 9 8 7 8 9
7 3 2 5 6 7 7 8 8 1 4 4 2 4 6 7 5 6 5 5 7 9 10 11 10 10 9 8 7 7 6 7 5 7 8 8 8 9 9 9 8 8 8 9 8 9 11 10 11 11 9 8 8 9 10 9 8 8 10 10 8 8 8 6 6 6 6 6 7 7 6 5 2 3 5 6 6 6 6 6 6 6 7 6 7 7 8 7 6 6 7 7 6 5 8 8 6
1 0 2 6 4 6 7 6 3 2 1 4 6 4 3 7 6 4 4 6 9 10 10 11 11 9 8 7 6 6 6 6 6 5 6 7 7 7 7 8 7 8 8 8 8 8 9 10 11 11 9 9 9 11 10 10 8 9 9 9 8 7 6 6 4 4 4 5 6 3 3 4 3 3 4 4 4 4 4 4 5 6 7 7 7 7 7 7 8 8 7 7 8 8 8 10 8
1 4 5 6 4 4 5 3 3 2 4 6 7 8 5 10 6 5 5 8 9 10 10 10 8 7 6 4 4 4 4 4 5 6 5 5 5 5 5 6 7 6 6 7 8 8 8 9 10 11 10 9 9 11 10 12 11 9 9 9 9 7 6 5 5 4 4 4 4 4 4 5 5 5 6 6 6 5 5 4 4 5 5 5 5 6 6 7 7 7 7 8 8 9 7 8 9
10 8 9 6 4 3 2 2 4 3 6 5 6 4 3 5 5 7 7 6 7 8 8 4 5 4 3 2 3 3 3 3 3 5 5 4 4 5 5 7 7 6 6 7 7 8 9 9 10 11 10 8 10 11 11 12 11 9 9 9 9 9 8 7 6 6 6 6 6 6 6 6 6 6 5 6 6 6 6 6 5 5 4 3 4 4 5 6 6 6 7 8 8 9 7 9 10
8 5 6 7 3 4 4 3 2 5 7 3 2 3 3 7 4 5 3 3 1 3 5 4 5 6 4 2 2 1 2 3 3 4 5 5 5 5 6 7 7 7 7 7 7 8 8 9 10 11 10 10 10 11 12 11 10 10 8 9 9 9 8 7 7 7 7 7 7 6 6 6 6 5 6 6 6 6 6 6 7 6 5 4 3 4 5 5 4 5 6 6 6 7 7 8 8
2 7 9 7 4 4 5 5 7 7 6 3 2 1 3 12 13 7 3 2 3 4 4 1 2 2 3 3 1 1 2 2 3 4 5 5 6 7 8 7 8 8 8 8 8 8 8 8 11 11 11 10 10 11 12 12 11 10 9 9 9 8 8 8 7 7 6 7 6 6 5 5 4 5 5 6 6 6 6 6 6 6 5 3 3 3 4 6 5 4 5 6 6 7 7 7 5
6 10 9 8 7 6 7 6 4 3 3 3 2 1 5 7 8 15 17 14 2 2 5 3 3 4 2 2 1 1 2 2 3 3 4 5 6 7 7 8 8 7 8 8 8 8 7 8 10 10 10 10 10 11 12 12 11 10 10 9 9 8 8 8 7 6 5 4 4 4 5 4 4 5 5 5 4 5 6 6 6 6 6 5 5 5 4 3 4 5 5 5 6 5 5 6 9
9 0 7 6 5 4 6 6 8 5 1 3 5 0 4 2 1 4 4 2 3 2 1 1 1 2 3 2 3 4 4 4 3 4 5 5 6 7 7 7 7 7 9 8 8 7 8 9 9 11 11 10 10 11 11 11 9 10 9 8 7 7 6 6 5 5 5 5 4 4 4 3 4 4 4 4 3 4 4 4 4 6 6 6 5 4 4 4 4 5 4 4 4 5 6 6 6
1 1 3 1 5 2 3 1 1 2 2 2 2 5 4 7 5 4 5 5 3 3 4 4 5 5 4 4 5 5 4 4 4 4 4 5 5 6 6 6 6 7 8 7 8 7 8 8 9 10 11 11 10 10 9 10 9 8 9 8 8 7 6 5 5 4 4 4 3 3 4 4 3 3 3 2 2 2 3 3 3 4 5 5 6 5 4 5 5 6 5 6 7 5 6 7 7
5 2 4 2 4 5 4 1 1 1 2 5 4 4 7 6 11 12 9 5 5 4 4 4 5 5 5 5 4 5 4 4 4 4 4 5 5 5 5 6 6 6 6 6 7 7 8 8 9 10 10 9 9 9 9 8 8 8 8 8 7 7 6 6 4 5 5 4 3 3 4 4 3 3 2 2 2 2 2 2 3 3 4 5 5 5 5 4 5 6 6 5 5 4 6 6 5
5 1 6 3 1 2 1 3 2 2 4 2 4 6 6 3 5 2 6 4 7 6 6 6 5 4 5 5 5 6 6 5 5 4 4 5 5 5 4 4 5 6 6 6 7 6 6 7 8 9 10 11 9 9 8 8 8 8 8 8 7 7 5 5 4 5 5 5 5 4 4 4 4 3 2 2 1 2 2 2 3 4 4 5 5 4 4 5 5 4 5 5 4 4 5 5 5
2 2 1 5 3 4 2 2 3 3 5 4 5 7 7 6 7 3 4 7 9 8 6 7 7 7 6 6 6 6 7 6 5 5 4 4 4 5 5 5 5 5 5 5 6 5 4 5 6 7 9 9 9 7 7 6 7 5 5 6 6 5 5 5 5 4 4 4 5 4 4 3 3 3 3 2 2 1 1 2 3 4 4 4 4 3 3 4 4 5 4 4 3 4 5 6 5
2 1 1 3 2 4 5 4 2 2 5 3 4 6 5 6 8 11 9 4 2 7 7 7 7 7 6 6 7 7 6 6 6 6 5 5 5 5 5 6 5 5 5 4 5 5 5 4 4 6 6 7 7 7 7 7 5 5 5 5 5 5 5 5 5 5 5 5 4 4 4 4 3 2 2 1 1 2 3 3 3 3 4 4 3 3 3 3 4 5 5 4 3 4 6 7 6
4 4 5 2 1 1 3 1 4 3 4 5 6 7 3 5 8 9 10 11 8 5 3 1 2 4 6 7 7 7 7 7 7 6 6 6 6 5 4 4 5 4 4 4 4 5 5 5 5 5 7 7 7 6 5 5 5 5 6 6 6 6 6 5 5 5 4 4 3 3 3 2 2 1 1 1 2 2 3 3 3 4 3 2 2 4 4 4 4 4 4 4 5 6 6 6 5
7 8 9 11 10 5 5 5 2 0 3 4 6 8 4 2 1 5 6 2 1 1 1 2 2 4 4 5 7 8 8 7 7 6 6 5 5 6 5 4 4 4 4 5 4 4 5 6 5 5 5 5 6 5 5 5 5 5 6 6 6 5 5 5 5 5 4 4 3 3 3 2 2 2 2 2 3 3 3 3 3 3 3 3 4 6 5 5 5 5 5 4 5 6 6 6 5
Wind_Direction
275 237 252 241 252 259 279 217 247 174 235 236 112 198 119 97 100 141 117 143 136 91 87 125 106 135 355 23 37 49 35 19 33 339 47 94 208 137 136 135 130 136 133 134 134 139 140 132 125 118 118 114 106 101 99 97 94 85 79 80 73 75 76 80 92 98 95 95 96 95 90 82 80 82 79 79 73 75 76 77 78 80 80 82 79 76 75 75 77 77 76 75 75 75 74 75 77
287 296 247 240 252 266 214 346 272 196 237 182 135 200 120 120 180 145 144 161 110 126 135 128 132 63 26 356 19 123 73 52 42 81 86 123 148 124 137 136 143 140 134 140 142 142 137 131 123 122 122 117 112 110 106 100 90 92 93 92 78 72 77 81 90 98 96 99 95 91 86 88 83 74 74 73 72 75 73 81 81 82 81 77 78 80 78 76 75 75 75 75 76 77 78 79 81
311 284 238 222 236 242 316 233 248 209 220 200 132 122 124 146 166 147 127 90 108 123 142 131 111 135 124 182 163 325 89 82 88 87 104 143 141 142 155 139 142 142 140 143 138 139 138 130 129 127 125 120 116 114 112 107 100 91 90 85 77 72 78 83 93 97 100 99 95 92 89 77 79 85 81 81 77 64 59 60 73 75 77 77 79 82 81 80 78 74 75 77 79 80 79 79 79
285 274 275 231 231 204 247 204 259 257 221 113 128 126 166 163 139 93 86 102 113 131 142 139 164 54 283 152 49 201 96 103 76 115 120 165 140 144 148 147 141 143 139 142 140 136 132 130 132 129 129 124 120 115 112 110 100 93 89 81 76 80 85 84 93 91 87 94 94 92 90 94 86 79 76 70 71 75 62 65 60 65 84 89 85 82 80 75 74 73 72 74 74 75 77 77 76
272 251 259 264 280 214 234 240 258 271 238 163 162 142 162 164 116 110 99 114 129 141 161 154 148 124 356 348 339 332 78 93 108 88 131 124 118 142 143 145 153 142 145 148 138 132 126 127 129 131 132 129 123 118 116 111 103 97 87 85 82 80 90 90 93 93 86 91 92 91 91 84 81 77 77 77 70 80 81 67 71 73 73 78 85 84 76 76 76 75 76 75 76 76 78 78 78
262 258 202 270 270 353 286 240 221 240 32 346 111 151 161 135 130 122 121 127 122 155 148 174 351 149 184 171 19 44 32 180 117 111 129 123 134 141 143 157 151 147 145 146 137 135 132 128 133 137 136 132 126 122 116 112 111 103 97 94 91 85 91 98 93 96 94 88 88 88 88 88 84 83 76 67 74 68 67 81 71 71 73 76 79 83 83 80 79 76 75 76 77 77 77 78 79
262 220 184 213 227 229 246 234 228 220 70 353 46 134 159 137 131 131 133 124 143 153 226 192 164 144 180 114 120 70 63 85 142 122 124 134 136 142 145 161 146 150 145 145 142 135 132 130 139 139 138 135 129 125 123 119 111 107 104 97 95 91 84 95 105 102 93 86 84 87 90 86 90 86 79 79 72 74 73 76 80 81 81 82 76 74 79 80 79 79 78 76 76 79 80 82 81
273 269 162 211 195 215 230 252 259 269 85 41 26 147 147 136 144 153 153 165 162 180 187 235 212 259 65 201 168 98 89 36 82 99 119 140 141 144 156 154 154 148 150 143 137 126 124 134 139 137 138 139 132 129 128 123 115 111 108 104 97 90 92 91 88 92 92 89 88 92 90 93 89 87 88 81 76 77 81 84 80 77 77 75 77 77 78 81 83 81 80 80 80 80 81 81 80
223 257 67 262 232 193 253 240 219 63 104 120 127 27 4 143 162 159 163 166 138 188 167 180 185 226 123 147 69 132 110 106 121 128 132 141 146 150 159 159 156 150 150 150 136 134 140 127 139 137 140 141 138 134 133 129 123 119 112 106 103 98 97 94 91 89 91 92 92 90 102 99 95 95 90 81 80 81 75 78 72 73 75 77 80 82 79 79 83 84 83 84 85 83 83 81 81
212 249 181 224 238 215 227 223 240 150 130 121 128 163 160 157 171 176 159 147 156 154 160 158 191 280 144 148 123 164 137 136 129 145 143 145 149 158 158 162 151 154 153 151 142 147 139 135 135 139 142 141 141 139 136 132 131 123 120 113 109 107 103 98 96 97 93 93 91 89 97 105 100 98 92 85 79 82 83 82 78 81 88 85 81 82 82 82 81 86 88 86 86 86 84 84 87
211 193 335 237 222 232 211 217 200 127 149 150 135 141 172 182 170 180 170 147 142 151 128 153 174 205 196 113 69 69 116 141 151 149 150 150 153 161 155 159 152 160 152 159 149 148 142 150 136 140 140 143 141 140 136 137 137 132 126 121 119 116 109 105 104 103 103 102 99 101 112 108 94 100 95 89 87 87 92 85 85 82 73 72 76 79 81 83 88 90 91 91 90 89 87 86 88
216 203 173 225 226 230 210 229 175 122 127 158 162 156 166 179 182 178 167 154 173 152 168 185 160 169 204 153 119 140 139 151 157 151 147 147 161 163 151 160 160 165 153 166 161 152 153 148 157 142 142 140 139 135 138 139 138 137 132 128 130 122 118 115 109 108 109 109 108 107 114 108 98 67 74 99 79 65 81 84 83 81 84 82 82 83 85 86 88 90 93 96 95 91 91 89 86
259 186 204 226 234 223 25 214 158 128 163 194 153 163 158 173 185 186 174 170 174 173 172 190 40 212 196 167 103 132 152 156 150 151 146 154 164 166 157 160 165 163 158 172 168 158 161 157 160 162 151 141 135 137 138 133 135 133 137 134 134 128 125 120 117 116 117 119 116 115 105 87 64 56 62 95 88 74 63 81 91 85 84 85 82 83 85 88 89 93 92 96 97 93 94 92 82
256 219 214 219 49 254 213 204 128 185 197 132 117 136 168 177 188 197 186 182 176 190 73 141 187 180 207 110 152 153 152 155 145 147 150 157 165 161 163 158 168 164 163 175 180 165 170 165 164 163 156 163 159 142 137 137 133 135 133 131 126 128 128 124 121 120 114 97 92 86 78 65 66 63 57 78 81 69 56 60 78 81 81 83 86 89 91 93 93 94 97 97 98 99 98 99 84
254 325 255 256 237 223 206 220 197 200 160 130 133 151 165 173 210 223 197 202 143 63 119 46 27 225 113 213 151 161 147 147 142 150 150 155 162 159 163 165 164 166 170 182 180 179 173 179 162 166 165 175 166 168 164 145 138 131 128 127 123 118 113 109 107 107 105 105 98 94 92 84 76 72 70 74 81 83 84 80 86 93 93 92 92 92 94 94 96 95 98 99 98 101 101 96 81
289 296 248 229 224 220 176 233 178 218 143 138 146 151 169 150 221 199 113 4 82 91 159 167 215 337 359 52 52 120 137 140 149 151 150 152 167 158 167 171 169 172 178 188 182 187 187 177 176 166 176 181 171 170 167 161 138 135 133 128 120 114 112 111 112 109 109 110 109 113 114 116 104 92 97 85 76 67 55 67 73 100 99 96 96 92 94 95 97 98 99 103 101 101 103 95 74
253 279 232 225 226 201 163 207 161 220 112 119 144 161 178 172 177 307 5 299 192 160 199 104 165 125 42 75 78 117 131 131 149 153 153 157 167 167 173 170 175 175 183 189 192 189 190 187 192 168 185 182 178 178 165 164 139 132 126 117 114 115 116 115 110 111 113 117 126 128 150 154 141 123 142 123 120 72 63 65 71 83 94 92 94 92 93 93 99 103 99 100 96 95 88 67 57
206 218 223 220 254 205 169 203 179 75 148 144 164 174 181 169 164 165 174 193 258 136 194 129 74 95 87 105 92 113 129 144 158 160 164 164 175 175 178 179 178 182 185 187 195 190 190 194 196 192 183 183 180 176 165 155 149 165 158 149 141 127 122 127 142 142 145 139 139 166 171 151 154 166 115 145 127 134 86 73 75 80 83 79 78 89 83 80 93 97 97 98 114 125 142 113 92
209 213 221 227 222 339 349 164 103 210 153 157 162 178 193 186 164 162 199 191 192 186 204 191 189 159 116 122 128 141 148 158 165 170 170 174 182 182 180 181 185 183 185 190 193 194 193 192 196 199 188 186 181 182 172 154 164 184 166 166 151 163 150 169 162 156 168 153 178 187 172 157 153 148 127 83 88 69 80 82 83 85 83 79 70 66 66 67 73 82 82 128 156 211 214 134 137
226 251 214 238 181 116 87 81 92 29 123 147 154 172 205 145 169 137 214 192 193 209 192 195 204 180 165 137 149 154 170 168 173 178 179 184 188 185 183 183 186 190 186 190 190 195 196 196 196 198 197 190 188 184 181 174 176 191 173 174 159 171 169 196 169 188 160 167 184 184 169 134 153 108 98 117 119 125 96 93 97 94 95 99 112 105 88 59 56 46 137 220 241 225 200 152 151
156 239 214 242 134 153 132 101 89 74 257 151 157 151 178 157 165 170 196 204 203 216 206 197 200 193 171 154 153 159 170 172 179 187 186 190 192 192 190 186 185 189 189 184 195 195 198 197 194 200 198 195 196 190 191 191 185 190 180 177 174 174 177 192 172 199 170 182 185 196 124 146 165 139 155 153 174 155 150 147 148 158 150 147 194 133 161 139 197 152 178 222 221 216 203 195 173
332 225 14 331 14 148 114 102 73 94 351 148 143 157 190 135 152 196 199 209 201 209 203 194 199 196 163 155 157 163 169 175 183 190 193 193 194 194 192 185 188 188 187 191 198 196 197 200 194 196 199 198 198 199 196 188 187 192 183 181 185 179 178 185 185 195 176 190 205 193 163 171 178 153 167 176 188 168 168 170 178 171 165 166 216 147 164 173 198 166 181 203 197 202 204 210 211
229 182 312 357 5 33 102 118 97 142 151 149 163 173 131 172 189 198 211 222 60 45 41 44 55 179 155 149 150 165 173 179 186 193 194 197 198 198 195 189 189 189 186 200 197 202 196 199 196 195 198 196 200 201 199 189 195 198 187 185 184 182 178 182 188 198 192 190 206 193 191 181 186 169 173 179 182 178 182 188 185 182 163 191 192 167 170 183 197 183 197 202 195 189 213 219 239
261 224 115 99 360 71 63 89 109 22 164 157 146 126 169 181 201 185 222 230 76 63 48 49 84 92 124 143 162 171 179 183 190 194 196 199 199 199 197 193 189 186 190 197 202 201 198 198 196 198 200 196 198 203 203 196 198 200 191 171 187 174 179 186 186 204 189 194 208 199 208 191 194 183 179 183 185 185 189 184 183 181 179 182 177 177 175 188 192 189 189 184 185 188 193 199 198
224 235 159 76 37 77 80 114 146 158 70 81 126 162 190 191 188 133 225 225 136 95 86 84 129 151 158 160 172 177 183 189 193 194 198 204 204 203 201 199 193 187 193 196 200 205 198 200 196 197 202 202 199 199 206 203 198 202 192 183 192 161 184 192 190 193 196 203 206 211 211 211 204 197 188 187 191 192 183 191 186 186 187 184 185 185 185 189 192 190 188 192 196 195 190 201 207
223 19 112 121 86 80 109 132 163 172 140 174 162 181 133 89 42 241 224 216 161 135 121 107 133 166 178 176 178 181 185 189 191 191 196 196 200 201 199 201 199 200 197 196 198 204 202 197 201 200 202 204 203 203 207 207 203 206 201 192 194 161 190 195 185 190 199 206 209 208 208 227 215 213 199 195 192 190 184 189 196 197 191 190 191 195 191 196 196 192 196 196 195 198 199 198 198
116 121 110 112 99 120 193 202 157 165 162 182 181 170 157 118 195 230 203 137 127 165 177 143 163 176 182 184 186 189 187 190 191 190 188 193 197 202 200 200 205 206 198 200 200 201 204 200 203 204 203 200 204 207 206 212 212 210 206 198 191 174 194 200 191 191 196 206 214 205 210 221 226 219 212 203 191 188 188 189 201 195 201 197 199 203 196 205 202 203 198 200 199 202 206 192 205
159 126 116 104 121 83 119 130 149 172 144 190 240 151 117 150 189 254 139 129 166 187 196 187 199 196 187 192 191 194 198 193 187 186 190 191 196 198 200 199 202 204 202 200 199 198 198 201 201 205 204 198 203 209 206 211 208 211 209 210 199 185 195 197 198 201 194 204 211 208 210 210 223 224 221 209 201 188 195 194 200 199 205 199 201 205 195 207 210 213 204 217 211 206 207 196 209
154 160 163 144 156 160 185 161 172 252 125 190 234 143 205 183 216 206 126 140 180 192 195 196 205 211 203 194 190 192 201 188 186 193 199 197 195 196 201 199 196 200 206 201 196 194 198 197 200 200 204 201 206 210 210 214 213 211 211 206 199 184 196 201 195 205 200 205 210 210 214 218 205 215 210 205 200 195 199 195 199 200 205 198 200 199 198 203 209 204 201 212 216 217 210 205 202
154 207 206 153 189 214 166 118 158 224 94 213 228 221 215 204 211 146 139 142 155 188 201 198 200 204 204 195 196 198 197 192 196 202 200 200 199 199 203 196 197 197 197 197 196 196 193 192 195 198 198 205 202 210 213 209 212 210 207 211 215 201 200 205 205 207 210 211 206 211 219 221 206 210 204 196 197 200 197 199 202 202 206 195 197 189 197 201 207 204 202 200 216 222 217 214 201
193 168 229 211 186 206 143 181 153 203 100 191 249 251 250 186 179 133 141 151 164 182 198 198 202 200 199 199 202 203 199 201 204 204 203 201 201 201 203 197 195 196 193 193 195 194 189 189 186 196 198 203 196 208 213 219 209 210 213 216 217 210 207 211 207 205 198 194 203 211 215 219 211 212 208 203 198 202 200 202 203 205 200 193 194 197 200 206 214 216 210 207 210 217 229 223 219
196 168 210 219 222 140 143 132 186 213 152 212 217 247 255 106 132 130 141 165 191 199 188 189 194 199 201 200 206 209 209 205 212 211 206 204 201 201 199 200 196 195 195 193 191 190 192 189 186 195 193 202 200 205 209 218 219 208 204 208 219 213 208 200 196 206 202 207 218 221 210 212 213 210 206 203 201 206 207 206 206 203 195 190 200 195 201 207 213 222 218 217 217 217 224 226 221
204 212 192 202 207 169 160 180 163 323 141 203 217 256 251 151 111 128 162 184 189 207 207 199 196 198 200 207 208 214 215 208 207 212 208 203 205 204 199 199 197 197 196 193 188 188 193 189 187 194 194 198 204 202 206 215 218 222 224 215 218 210 209 207 206 205 213 218 216 205 201 208 215 209 204 204 208 209 213 210 205 199 185 189 197 199 202 211 214 218 224 218 229 228 222 225 223
203 208 228 198 201 189 207 92 217 168 212 191 221 241 254 98 154 146 163 196 196 206 210 207 206 210 210 210 213 215 218 215 211 207 207 204 204 203 201 198 199 195 196 196 192 188 192 189 188 193 196 196 199 204 203 208 214 216 216 221 223 226 219 211 208 211 214 209 215 223 209 193 216 207 203 208 214 215 216 212 204 196 182 191 197 198 207 213 219 217 222 217 220 231 231 225 224
192 185 213 170 220 219 218 180 154 186 215 236 197 228 246 249 143 162 169 177 195 210 211 214 216 217 219 217 217 220 223 222 221 212 203 201 202 200 202 200 200 198 195 196 195 192 191 191 190 190 197 195 196 199 202 208 212 219 222 222 216 209 220 216 209 212 208 206 207 180 153 180 193 201 202 208 220 219 218 216 211 177 176 188 196 201 205 210 219 223 222 220 214 222 239 234 233
193 181 202 212 194 205 212 98 136 209 192 218 215 217 234 238 246 177 162 180 198 206 204 214 220 222 224 222 222 224 224 228 221 216 205 193 192 190 193 195 195 197 197 195 196 193 192 191 192 191 195 195 193 194 193 202 206 210 214 219 226 216 215 205 200 204 184 189 191 198 203 203 201 205 211 211 215 224 207 190 186 164 183 192 201 206 206 207 210 211 217 220 206 173 43 56 59
219 198 212 232 223 165 89 91 97 259 224 219 223 237 246 248 237 236 190 175 201 219 221 221 224 227 227 226 227 228 225 229 209 186 167 174 179 185 185 186 192 192 197 195 195 196 194 191 188 193 189 192 193 195 196 198 204 210 216 218 222 220 220 208 197 201 207 203 197 197 203 209 216 205 214 221 224 214 200 155 189 184 187 201 208 214 209 207 200 203 188 166 199 184 201 124 88
228 216 222 219 210 223 100 121 130 183 232 223 222 243 250 250 249 241 241 221 216 217 226 229 229 229 227 224 226 226 229 205 132 167 178 172 178 174 175 182 185 187 195 195 196 196 196 195 193 191 186 188 195 196 193 195 200 205 206 213 220 226 226 233 232 225 223 214 213 216 221 226 226 222 204 204 196 211 211 211 213 203 194 213 216 210 195 184 152 149 129 203 203 218 216 141 135
234 231 203 231 207 98 126 93 115 138 198 248 144 245 254 253 250 245 238 237 238 231 232 234 234 233 231 225 222 224 211 202 194 203 187 185 184 182 180 185 193 201 194 195 197 194 194 196 197 191 189 186 190 192 194 195 198 205 205 200 200 200 216 229 233 238 226 222 209 209 204 216 203 212 207 196 206 204 208 208 211 203 198 194 199 196 197 196 187 184 178 195 168 194 255 82 171
233 217 222 215 165 178 205 158 156 186 237 322 15 304 274 266 254 247 237 233 232 232 235 238 234 238 234 226 217 217 214 208 209 197 189 190 180 181 183 186 191 192 195 194 194 196 193 194 193 191 188 186 186 188 193 194 200 211 220 221 209 223 231 210 215 235 244 233 217 196 197 200 203 200 213 205 196 191 202 209 209 203 203 197 208 217 201 215 208 205 194 203 188 223 216 228 195
219 243 228 216 147 181 319 133 160 126 244 336 294 286 272 250 247 238 230 223 225 219 212 228 234 236 243 263 292 236 221 213 211 196 190 189 179 186 190 188 184 188 193 191 189 190 191 192 188 186 183 185 184 181 184 185 186 197 207 219 298 228 59 243 194 237 239 233 235 222 221 210 200 196 207 205 197 206 207 217 217 208 195 196 189 210 205 204 199 203 187 191 198 217 229 216 180
210 219 241 347 170 155 106 125 153 199 218 182 208 275 264 239 225 231 213 132 215 216 219 227 227 219 209 224 232 230 228 231 221 205 198 199 187 178 185 187 191 192 192 192 186 188 185 183 181 179 179 180 181 178 178 180 185 187 188 189 200 208 215 213 218 220 221 222 229 235 233 222 223 214 202 213 208 210 216 216 223 228 220 204 206 218 221 212 215 207 199 206 213 211 231 223 222
224 193 182 153 217 135 147 159 196 223 245 125 245 224 267 123 211 214 191 190 219 201 205 232 230 224 206 210 217 218 221 215 214 226 223 195 187 182 191 194 196 196 194 180 177 180 178 176 177 175 175 175 173 173 172 175 183 187 193 201 203 205 212 219 227 232 234 228 231 239 243 243 236 209 203 221 227 219 226 228 220 216 209 208 201 210 213 210 205 212 204 201 211 206 203 232 224
224 33 177 132 150 152 170 182 206 290 82 95 214 243 264 272 243 140 152 200 232 232 224 225 225 218 210 203 206 208 211 215 201 203 206 211 209 200 203 195 194 197 183 174 175 180 180 175 171 172 170 168 167 165 169 175 182 182 191 198 200 202 208 215 212 222 227 237 232 229 235 237 235 259 252 238 224 215 210 217 214 212 214 204 205 206 211 206 203 215 210 211 214 203 210 218 224
248 357 250 151 169 174 173 197 200 5 333 240 176 189 249 252 238 144 178 253 246 240 234 226 221 203 198 193 195 200 212 214 209 204 198 189 189 193 195 177 181 180 171 171 169 172 172 168 165 168 166 165 165 166 165 174 184 183 187 190 193 202 205 215 216 214 226 223 236 234 226 239 226 223 242 259 244 231 197 216 220 222 219 220 208 217 217 219 220 217 212 212 214 219 218 222 232
153 162 85 83 80 117 179 198 197 185 210 245 188 183 239 264 249 203 180 230 241 239 235 235 191 171 172 175 182 201 212 214 219 226 209 174 158 167 172 147 152 161 160 170 167 163 163 160 163 165 163 163 159 159 166 173 183 182 183 186 187 185 196 205 215 208 210 220 223 222 222 229 235 239 237 239 247 247 233 208 228 234 232 226 217 223 219 222 226 224 217 211 215 222 218 221 230
137 155 112 111 118 138 173 206 205 201 237 232 115 178 258 278 230 233 190 212 222 234 237 195 123 132 165 170 194 208 222 220 205 196 198 169 140 151 155 160 150 140 146 155 154 157 156 158 161 164 160 155 154 155 168 173 179 181 181 180 186 189 189 195 197 207 211 217 220 221 221 224 227 231 231 234 231 236 241 240 235 238 235 234 223 219 222 214 213 213 218 220 220 221 228 227 233
161 150 144 127 107 157 179 189 202 232 241 100 333 160 227 226 237 221 228 50 28 248 251 202 155 156 163 173 185 210 240 240 214 188 177 164 156 157 164 157 154 152 154 156 155 153 154 155 158 157 155 152 150 156 169 172 174 178 181 180 187 193 190 191 201 209 207 213 220 225 223 227 229 232 235 239 239 232 235 241 231 220 219 203 225 236 231 239 224 224 229 223 229 225 223 225 229
243 167 167 184 178 173 201 187 205 217 242 109 94 218 248 238 242 272 213 274 217 217 233 229 142 144 145 163 162 202 242 252 233 206 175 171 172 166 170 159 152 157 163 159 156 154 155 156 160 156 154 151 152 162 170 169 171 176 181 183 187 190 195 196 202 211 212 211 212 216 221 220 218 220 221 229 224 229 242 239 244 248 228 185 215 219 244 242 239 217 213 218 216 220 222 220 225
202 191 181 195 194 188 210 200 220 235 79 256 92 145 272 298 274 237 252 253 277 188 200 231 263 277 235 166 179 237 224 240 240 204 188 179 171 167 166 159 160 159 158 156 153 154 154 155 160 154 151 153 158 165 167 169 173 176 181 183 187 189 194 201 204 207 207 209 207 212 216 228 230 230 230 229 232 239 247 252 251 250 246 223 210 212 206 223 239 244 229 222 222 222 221 219 234
199 12 200 204 207 181 194 199 198 205 217 86 259 232 233 212 118 355 307 22 122 193 159 148 228 253 267 284 278 254 245 225 202 203 192 180 168 162 157 158 155 156 156 155 155 156 152 156 157 153 152 159 159 164 167 171 174 177 180 184 186 184 186 188 198 204 200 200 201 207 217 227 233 232 229 223 223 229 239 252 255 257 259 256 246 221 199 218 217 243 253 231 231 227 227 225 229
174 231 32 299 217 14 227 31 331 129 138 147 154 228 268 228 13 259 222 249 208 174 193 191 234 228 219 249 247 235 220 195 181 189 176 161 153 150 148 149 148 151 155 153 156 156 158 158 159 156 157 157 160 162 166 169 169 170 172 177 180 177 177 180 185 183 183 189 195 203 213 220 229 234 230 229 223 231 243 252 247 245 249 257 259 258 236 211 210 225 226 220 226 221 233 225 237
181 132 207 173 16 105 101 121 112 0 333 253 153 250 256 272 269 259 261 209 230 171 193 190 221 228 206 228 228 206 193 175 170 177 166 151 141 146 145 146 145 148 151 156 155 156 158 153 158 156 154 156 159 164 161 164 161 161 168 172 174 174 175 180 181 178 182 175 186 197 207 209 214 218 217 186 222 235 258 270 280 280 273 264 259 260 262 260 246 236 231 243 253 246 247 249 242
98 220 188 130 209 19 135 236 125 230 238 247 151 220 254 235 291 153 189 195 240 206 187 201 205 179 213 213 201 183 172 165 161 151 140 147 153 147 130 127 140 146 145 146 143 149 155 157 162 154 155 160 163 163 161 161 159 162 165 172 172 170 168 175 179 179 177 178 180 193 199 204 205 194 177 188 210 253 272 275 268 273 273 269 266 273 278 269 254 253 261 255 234 236 241 240 233
319 159 34 182 185 214 181 238 219 205 221 244 208 217 247 238 235 165 185 221 237 239 198 184 199 202 209 198 187 162 144 139 155 159 157 152 152 149 148 146 125 117 121 129 131 127 128 144 161 159 159 159 155 154 151 152 159 153 157 160 160 160 165 171 179 175 172 179 179 185 184 194 185 190 184 189 199 227 251 265 262 265 266 271 273 276 279 283 281 271 260 260 236 224 244 246 238
57 232 218 37 353 248 178 201 310 245 247 234 245 155 249 193 227 241 246 215 223 237 212 203 210 202 188 181 168 149 148 161 170 169 164 161 154 152 151 146 144 143 136 119 122 134 148 142 148 145 135 135 140 143 147 150 147 142 138 139 148 160 165 171 169 170 178 175 174 179 186 190 193 183 170 160 229 247 257 256 255 255 259 265 278 291 283 273 275 272 276 274 263 238 247 252 254
166 185 179 184 214 14 338 233 220 227 249 242 271 254 234 223 192 212 227 239 245 268 265 203 199 202 185 162 155 158 164 170 172 165 160 158 152 141 128 122 114 105 99 115 136 151 147 145 159 153 150 145 141 141 145 138 144 145 148 155 155 157 160 162 162 166 164 161 156 163 182 165 118 146 130 211 226 238 250 253 255 256 261 275 281 274 270 271 260 256 252 252 262 257 252 252 247
193 181 188 185 168 175 185 217 84 138 222 241 233 251 259 80 160 190 222 195 82 79 335 297 220 201 173 152 156 170 168 172 165 154 152 149 146 141 130 106 108 127 137 147 143 143 146 163 159 154 143 141 140 143 149 141 147 150 154 154 149 150 158 157 159 154 153 139 148 165 152 136 158 161 155 199 224 236 242 248 251 268 269 268 263 260 261 264 265 264 260 245 249 255 257 256 248